Overview Statistics Trail Chart Weather Telemetry Raw packets
 

This is the latest recevied weather packets stored in our database for station/object K0NV. If no packets are shown the sender has not sent any weather packets the latest 10 day(s).

<< 1 2 3 4 5 >>
Time Temp. Humidity Pressure Rain* Wind** Luminosity Snow
1788571616 31.11° C 57% 1015.1 hPa 0 mm - 0 W/m² -
1788571312 31.11° C 56% 1015.1 hPa 0 mm - 0 W/m² -
1788571008 31.11° C 56% 1015.1 hPa 0 mm - 0 W/m² -
1788570704 31.67° C 56% 1015 hPa 0 mm - 0 W/m² -
1788570399 31.67° C 55% 1014.9 hPa 0 mm - 0 W/m² -
1788570094 31.67° C 54% 1014.8 hPa 0 mm - 0 W/m² -
1788569790 32.22° C 55% 1014.9 hPa 0 mm - 0 W/m² -
1788569485 32.22° C 54% 1015 hPa 0 mm - 0 W/m² -
1788569179 32.78° C 53% 1014.8 hPa 0 mm - 0 W/m² -
1788568875 32.78° C 52% 1014.6 hPa 0 mm - 0 W/m² -
1788568571 32.78° C 52% 1015 hPa 0 mm - 1 W/m² -
1788568266 33.33° C 51% 1014.7 hPa 0 mm - 5 W/m² -
1788567961 33.33° C 50% 1014.6 hPa 0 mm - 7 W/m² -
1788567655 33.89° C 49% 1014.7 hPa 0 mm - 10 W/m² -
1788567350 33.89° C 48% 1014.8 hPa 0 mm - 12 W/m² -
1788567044 34.44° C 47% 1015.1 hPa 0 mm - 16 W/m² -
1788566740 34.44° C 46% 1014.7 hPa 0 mm - 18 W/m² -
1788566437 34.44° C 46% 1015 hPa 0 mm - 20 W/m² -
1788566131 35° C 46% 1014.8 hPa 0 mm - 23 W/m² -
1788565831 35° C 46% 1014.8 hPa 0 mm - 25 W/m² -
1788565531 35° C 46% 1014.7 hPa 0 mm - 30 W/m² -
1788565227 35° C 46% 1014.8 hPa 0 mm - 34 W/m² -
1788564922 35° C 46% 1014.6 hPa 0 mm - 38 W/m² -
1788564618 35° C 46% 1014.7 hPa 0 mm - 39 W/m² -
1788564314 35.56° C 46% 1014.6 hPa 0 mm - 40 W/m² -

* Rain latest hour (hover to see other rain measurements)
** Current wind speed in m/s (hover to see current wind gust speed)